loading
|

ONEWEB-0094, 45450

Orbit data source: Space-Track

ONEWEB-0094, 45450 is a payload satellite owned by One Web (UK) in LEO that was launched on Sat, 21 Mar 2020 UTC via a SOYUZ-2-1B launch vehicle from the Tyuratam Missile And Space Complex (TTMTR). Payloads include a variety of satellites, spacecraft, and rockets equipped with specific instruments for various scientific and technological missions. These include communications satellites like Starlink; space stations such as the ISS; scientific satellites like the Hubble; Earth observation satellites from companies like Planet Labs, Umbra, and HawkEye 360; GPS; miniature CubeSats for education and research; and military/defense satellites.

Loading next visibility...
Loading greatness...
ONEWEB-0094 details
Identifier
45450, 2020-020AC
Orbit
LEO
Last TLE update9 hours ago
Origin
Flag of UKOne Web (UK)
ManufacturerOne Web
MissionOperational Commercial Communications
Bus & MotorARROW, Unknown motor
Mass148 kg wet, ~140 kg dry
Launch date (UTC)
2020-03-21 (5 years ago)
Launch vehicle
SOYUZ-2-1B
Launch site
Tyuratam Missile And Space Complex (TTMTR)
Object type
Payload
Rocket body
Debris
Shape & HBRTrap Box + 2 Pan, 5 m
Radar Cross Section2.957 m², Medium (>0.1 m² and < 1m²)

Expand to show TLE details & history

TLE from 9 hours ago
0 ONEWEB-0094
1 45450U 20020AC  24279.56617642  .00000036  00000-0  58924-4 0  9994
2 45450  87.9099 129.2707 0001449  88.7765 271.3532 13.17648559224717
Epoch: 2024-10-05T13:35Z
Definitive object data (Epoch: 2024-10-05T13:35:17.642Z)
Latitude-0.00009°
Longitude-89.27346°
Altitude1,196.588 km
Speed7.256 km/s
True Right ascension08h 37m 04s
True Declination0° 00' 00"
Sunlit
Object was in daylight at TLE epoch
Predictive object data (real-time)
Latitude30.97523°
Longitude-88.1014°
Altitude1,197.049 km
Speed7.258 km/s
Apparent Right ascension07h 04m 13s
Apparent Declination-1° 05' 37"
Sunlit
Object is in daylight
Predictive observer data (real-time)
Local Sidereal Time16:51:19
Azimuth313.623° NW
Elevation-40.826°
Doppler factor1
Orbital elements
Apogee1,191.921 km
Perigee1,189.727 km
Semi-major axis7,568.961 km
Eccentricity0.0001449
Inclination87.9099°
RAAN129.2707°
Arg. of periapsis88.7765°
True anomaly271.3366°
Mean anomaly271.3532°
Eccentric anomaly271.3449°
Mean motion3.29601 °/min
BSTAR0.000058924
Period109.22 mins
No data available

ONEWEB-0094 Visibility forecast

Observer location: 39.9160978°, -105.1181434

ONEWEB-0094 is not visible in the next 10 days
Span
Click to sort rows by Start time (UTC) header in descending order
Start Az.
Max El. time (UTC)
Max El. Az.
Max El.
End time (UTC)
End Az.